Home > Weather > Asheville > Past weeks

Flag for USA Past Weather in Asheville, North Carolina, USA — Yesterday and Last 2 Weeks

Now
64 °F

Clear.


Feels Like: 64 °F
Forecast: 59 / 79 °F
Wind: 3 mph from Southeast

Location: Asheville Regional Airport

Current Time: May 27, 2016 at 12:52:27 AM

Latest Report: May 26, 2016 at 11:54 PM


Visibility: 8 mi

Pressure: 30.10 "Hg (27.89 "Hg at 647m altitude)

Humidity: 90%

Dew Point: 61 °F

Location of AshevilleLocation

Past Weather in Asheville — Graph

°F

Asheville Temperature Yesterday

Maximum temperature yesterday: 79 °F (at 11:54 AM)
Minimum temperature yesterday: 58 °F (at 3:54 AM)
Average temperature yesterday: 68 °F

High & Low Weather Summary for the Past Weeks

 TemperatureHumidityPressure
High79 °F (May 25, 12:54 PM)97% (May 12, 3:54 AM)30.25 "Hg (May 12, 3:54 AM)
Low42 °F (May 15, 5:54 AM)24% (May 14, 5:54 PM)29.81 "Hg (May 14, 4:54 PM)
Average62 °F68%30.06 "Hg
* Reported May 11 11:58 PM — May 26 11:54 PM, Asheville, Weather by CustomWeather, © 2016

Note: Actual official high and low records may vary slightly from our data, if they occured in-between our weather recording intervals... More about our weather records

Advertising

Asheville Weather History for the Previous 24 Hours

Scroll right to see more
 ConditionsComfort  
Time TempWeatherWind HumidityBarometerVisibility
11:54 PM
Thu, May 26
64 °FClear.3 mph90%30.10 "Hg8 mi
10:54 PM65 °FClear.No wind87%30.10 "Hg10 mi
9:54 PM67 °FClear.3 mph85%30.10 "Hg10 mi
8:54 PM69 °FSunny.No wind73%30.11 "Hg10 mi
7:54 PM73 °FSunny.3 mph62%30.10 "Hg10 mi
6:54 PM73 °FSunny.6 mph64%30.09 "Hg10 mi
5:54 PM73 °FSunny.9 mph71%30.09 "Hg10 mi
4:54 PM70 °FScattered clouds.3 mph76%30.13 "Hg10 mi
3:54 PM70 °FMostly cloudy.No wind68%30.16 "Hg10 mi
2:54 PM74 °FThundershowers. Partly sunny.20 mph64%30.15 "Hg10 mi
1:54 PM78 °FPartly sunny.13 mph50%30.14 "Hg10 mi
12:54 PM78 °FOvercast.8 mph46%30.16 "Hg10 mi
11:54 AM79 °FSunny.3 mph44%30.16 "Hg10 mi
10:54 AM74 °FSunny.3 mph56%30.16 "Hg10 mi
9:54 AM70 °FSunny.3 mph64%30.17 "Hg10 mi
8:54 AM65 °FSunny.No wind73%30.19 "Hg10 mi
7:54 AM61 °FSunny.No wind83%30.19 "Hg10 mi
6:54 AM61 °FOvercast.No wind83%30.18 "Hg10 mi
5:54 AM60 °FClear.No wind83%30.16 "Hg10 mi
4:54 AM59 °FClear.3 mph87%30.15 "Hg10 mi
3:54 AM58 °FClear.3 mph90%30.15 "Hg8 mi
2:54 AM60 °FClear.No wind86%30.14 "Hg9 mi
1:54 AM62 °FClear.No wind80%30.15 "Hg10 mi
12:54 AM63 °FClear.No wind78%30.16 "Hg10 mi
Weather by CustomWeather, © 2016

See weather overviewHow to use our weather pages